Regional Weather Roundup
Issued by NWS

Home | Current Version | Previous Version | Graphics & Text | Print | Product List | Glossary On
Versions: 1 2 3 4 5 6 7 8 9 10 11 12 13 14 15 16 17 18 19 20 21 22 23 24 25 26 27 28 29 30 31 32 33 34 35 36 37 38 39 40 41 42 43 44 45 46 47 48 49 50
000
ASUS45 KCYS 191310
RWRWY

WYOMING REGIONAL WEATHER ROUNDUP
NATIONAL WEATHER SERVICE CHEYENNE WY
700 AM MDT SUN APR 19 2015

NOTE:  "FAIR" INDICATES FEW OR NO CLOUDS BELOW 12,000 FEET
WITH NO SIGNIFICANT WEATHER AND/OR OBSTRUCTIONS TO VISIBILITY.

WYZ001-191400-
YELLOWSTONE NATIONAL PARK

CITY           SKY/WX    TMP DP  RH WIND       PRES   REMARKS
LK YELLOWSTONE   N/A     20  15  81 CALM      30.22S
W YELLOWSTONE  NOT AVBL

$$
WYZ002>013-054>058-071-098>099-191400-
NORTHERN WYOMING

CITY           SKY/WX    TMP DP  RH WIND       PRES   REMARKS
JACKSON        CLEAR     27  21  80 CALM      30.19R
CODY             N/A     28  25  86 CALM      30.24R
GREYBULL       FAIR      32  25  75 W12       30.24R WCI  23
WORLAND        FAIR      34  25  69 N8        30.23R WCI  27
SHERIDAN       FAIR      31  25  78 NW12      30.21R WCI  22
BUFFALO        MOCLDY    34  25  69 N18G24    30.18R WCI  23
GILLETTE       FAIR      31  25  78 W13       30.16R WCI  21
HULETT         FAIR      34  21  60 NW6       30.14R WCI  29
NEWCASTLE      FAIR      30  25  80 NW8       30.14R WCI  23

$$
WYZ014>020-022>026-101>103-191400-
CENTRAL WYOMING

CITY           SKY/WX    TMP DP  RH WIND       PRES   REMARKS
BIG PINEY      MOCLDY    30  24  78 S7        30.19R WCI  23
PINEDALE       PTSUNNY   32  27  80 SE3       30.21R
DUBOIS         FAIR      23  19  86 CALM      30.18R
LANDER         CLOUDY    35  27  72 SE8       30.20R WCI  29
RIVERTON       FAIR      33  21  61 N9        30.21R WCI  25
CASPER         FAIR      26  23  88 W6        30.20R WCI  19
DOUGLAS        FAIR      31  27  85 W7        30.19R WCI  24

$$
WYZ021-027>030-104>119-191400-
SOUTHERN WYOMING

CITY           SKY/WX    TMP DP  RH WIND       PRES   REMARKS
EVANSTON       FAIR      33  30  88 E10       30.15R WCI  25
FORT BRIDGER   CLOUDY    36  34  93 E8        30.20R WCI  29
ROCK SPRINGS   CLOUDY    30  28  92 NE6       30.20R WCI  24
DIXON          CLOUDY    34  27  76 N9        30.21R WCI  26
RAWLINS        CLOUDY    30  26  85 NW5       30.19R WCI  25
SARATOGA       CLOUDY    30  28  93 CALM      30.19S
LARAMIE        FLURRIES  26  23  88 N9        30.14S WCI  17
CHEYENNE       MOCLDY    31  22  69 N18G26    30.12R WCI  19
TORRINGTON     FAIR      35  27  72 NW17      30.13R WCI  25
PINE BLUFFS    FAIR      32  28  86 NW20G26   30.12R WCI  20

$$



USA.gov is the U.S. government's official web portal to all federal, state and local government web resources and services.